sat.trackr.live / text

‹ back to catalog

STARLINK-5137

NORAD 53975 · 2022-125M

PAYLOAD ACTIVE UNKNOWN

§ Identity

Operator
Country
US
Launch date
2022-10-05
Launch site
AFWTR
Launch vehicle
Mass (kg)
RCS (m²)

Purposes: comms

External: N2YO · Heavens-Above · Gunter

§ Orbital elements

Epoch: 2026-09-20T22:23:59.653248Z

Period
95.44 min
Inclination
53.1612°
Eccentricity
0.0001317
Mean motion
15.08827958 rev/d
Perigee alt
538.9 km
Apogee alt
540.7 km
Semi-major
6,917.9 km
B*
-5.1241e-5
RAAN
61.5472°
Arg perigee
91.2549°
Mean anomaly
268.8593°
Rev number
21,887

§ Raw data

STARLINK-51371 53975U 22125M   26263.93332932 -.00001103  00000+0 -51241-4 0  99972 53975  53.1612  61.5472 0001317  91.2549 268.8593 15.08827958218876

JSON: /api/v1/satellites/53975 · /tle

For live sub-satellite position, see the globe view (requires WebGL).

§ Visibility from observer

Set your observer location to see the next 7 days of passes ≥ 10°. The values pass through the URL so the page stays shareable.

No JS? Fill the form by hand. The geolocation button needs JavaScript.